sat.trackr.live / text

‹ back to catalog

BADR-4

NORAD 29526 · 2006-051A

PAYLOAD ACTIVE UNKNOWN

§ Identity

Operator
Country
AB
Launch date
2006-11-08
Launch site
TYMSC
Launch vehicle
Mass (kg)
RCS (m²)
0.00

Purposes: comms

External: N2YO · Heavens-Above · Gunter

§ Orbital elements

Epoch: 2026-05-25T03:52:09.039072Z

Period
1,436.03 min
Inclination
1.9478°
Eccentricity
0.0004856
Mean motion
1.00276546 rev/d
Perigee alt
35,764.8 km
Apogee alt
35,805.7 km
Semi-major
42,163.4 km
B*
0.0000e+0
RAAN
81.3534°
Arg perigee
326.8354°
Mean anomaly
279.0113°
Rev number
5,103

§ Raw data

BADR-41 29526U 06051A   26145.16121573  .00000144  00000+0  00000+0 0  99972 29526   1.9478  81.3534 0004856 326.8354 279.0113  1.00276546 51036

JSON: /api/v1/satellites/29526 · /tle

For live sub-satellite position, see the globe view (requires WebGL).

§ Visibility from observer

Set your observer location to see the next 7 days of passes ≥ 10°. The values pass through the URL so the page stays shareable.

No JS? Fill the form by hand. The geolocation button needs JavaScript.